map of RES home
RES - Airport
Location
City:  Resistencia, Chaco, Argentina
Name:Resistencia International Airport
ICAO:SARE
IATA:RES

Details
Type:Airport (Aerodrome, Airfield)
Use:Public/Civil, International (customs port of entry)
Latitude:2727'00"S (-27.449985)
Longitude:5903'22"W (-59.056124)
Datum:WGS 1984
Elevation:173 ft (53 m)
Variation:12.27W (WMM2015v2 magnetic declination)
-0.19 annual change
Runways:1
Longest:9088 × 147 ft (2770 × 45 m), paved

Time
Time Zone:UTC-3
Local Time:

Weather
METAR:SARE 041400Z 14006KT 9999 FEW025 SCT200 26/19 Q1019
TAF:SARE 041100Z 0412/0512 18010KT CAVOK TX30/0418Z TN19/0509Z= TAF SARF 041100Z 0412/0512 18010KT CAVOK TX31/0418Z TN20/0509Z

Related Locations
Nearby:
Farthest:WNZ: 12441 mi / 20021 km
Wenzhou [Intl], 33, CN

Find:

   beyond  
but within

Other Information
Maps:
NOTAMs:
Links:
Sources:

  
  • flag of Argentina
  • flag of Chaco
  

Sectional Chart

Flight Planning
at skyvector.com

Satellite Image

Google Maps Satellite view

 

Copyright © 2004-2019 Karl L. Swartz. All rights reserved.
The Great Circle Mapper name and logo are trademarks of the Great Circle Mapper.
All other trademarks mentioned herein belong to their respective owners.
Please see credits for attibutions and further copyright information.

  Follow gcmap on Facebook Follow gcmap on Twitter GCmap on LinkedIn

hCard Microformat

Geo Microformat